Theta_e
310 308 308 309 311 316 317 316 314 313 313 313 313 313 313 313 317 316 320 324 322 336 343 342 340 336 337 337 339 344 347 345 344 343 342 347 347 346 347 345 345 344 340 337 338 337 335 336 337 337 338 338 339 338 337 335 331 332 332 332 331 329 328 328 328 327 325 322 320 317 315 315 313 312 312 313 314 316 320 325 326 322 320 321 322 321 319 318 318 320 324 324 323 324 320 316 315
308 307 308 309 312 316 318 315 313 314 312 310 312 313 313 314 317 318 326 327 327 343 344 343 343 342 344 342 345 346 347 346 345 347 347 347 347 347 346 345 345 343 340 338 338 336 335 335 335 336 337 338 338 338 337 335 332 332 332 332 332 331 330 329 328 326 324 320 318 316 316 316 316 314 312 313 314 316 318 320 322 323 326 328 331 329 323 319 317 318 320 319 319 322 319 315 315
306 307 308 310 314 316 317 315 313 314 311 309 311 312 313 314 317 317 326 332 334 343 342 343 343 342 345 343 346 346 346 347 346 347 346 347 347 347 346 346 345 343 342 339 338 336 335 335 333 334 335 337 338 338 337 336 333 333 333 332 332 332 332 332 330 327 324 321 319 319 320 321 321 320 319 317 315 316 318 318 320 326 332 334 336 336 331 322 317 322 323 317 317 319 318 315 314
307 309 310 313 315 315 316 315 314 313 310 310 310 311 313 316 317 315 323 336 341 342 341 344 343 342 345 343 345 346 347 347 347 347 346 347 346 346 345 346 345 344 343 340 339 337 336 335 333 333 333 336 338 338 337 337 335 335 334 333 332 332 333 333 332 328 325 324 324 325 328 329 329 330 330 327 321 318 321 323 322 325 333 336 336 337 335 326 323 325 323 320 321 319 315 315 315
310 312 313 315 315 316 315 314 314 312 310 311 311 312 315 316 316 314 318 329 338 341 342 343 344 343 344 345 345 346 347 347 347 346 346 346 345 345 345 345 345 344 343 341 339 338 338 335 333 333 333 335 337 337 337 337 337 336 336 335 334 333 332 333 333 330 328 329 329 330 332 332 334 334 334 331 327 323 323 325 323 322 328 335 336 335 333 332 331 326 321 325 327 324 317 314 315
313 314 314 315 314 315 314 312 313 313 312 313 312 313 315 315 315 315 316 318 326 337 342 342 343 343 345 345 346 347 347 347 347 346 346 345 345 345 345 344 344 343 342 341 339 339 339 336 333 333 334 335 337 337 337 337 337 337 337 337 336 334 332 332 333 333 332 331 330 331 332 333 335 335 334 333 331 329 326 325 325 323 322 326 327 327 330 334 336 328 323 328 326 323 321 315 316
314 315 314 315 314 314 315 313 312 313 313 312 314 315 315 315 315 315 316 315 320 335 341 341 342 342 344 344 345 346 346 347 347 346 345 345 345 345 344 343 344 343 342 341 340 339 339 335 334 334 335 336 337 337 336 337 337 338 338 337 337 335 334 332 332 334 335 333 330 330 331 334 335 334 334 334 333 331 328 327 327 326 322 321 320 319 324 328 332 329 326 329 326 323 321 317 316
314 314 314 314 314 314 315 315 313 314 313 312 313 315 316 316 315 314 315 315 321 336 342 341 342 341 344 344 345 346 346 347 347 346 345 345 345 345 344 343 343 342 341 341 340 340 338 336 335 337 337 338 336 335 336 337 337 338 338 338 337 336 335 334 332 333 334 334 332 331 331 334 335 334 334 334 334 333 331 327 327 328 325 323 321 318 320 320 322 326 326 328 327 323 320 317 315
314 314 313 314 314 313 313 313 313 313 312 313 313 315 316 315 315 315 315 315 318 335 345 343 341 341 344 345 346 347 347 347 347 346 345 346 344 344 343 343 343 341 341 341 339 339 338 338 338 338 338 338 336 335 336 336 337 338 338 338 337 335 335 334 333 332 333 334 333 331 329 332 335 335 334 334 334 334 331 327 327 328 327 325 324 320 318 319 318 320 322 323 323 321 319 316 316
314 313 313 313 313 312 312 312 313 312 312 314 314 315 316 315 315 314 315 314 317 336 345 342 340 342 346 346 346 346 346 347 347 347 346 346 344 342 343 342 342 341 341 340 339 338 339 339 338 338 339 338 336 336 336 337 338 338 338 338 336 335 334 333 333 331 332 334 334 332 329 331 334 335 335 334 333 333 331 328 328 329 328 327 326 321 318 319 318 318 317 318 319 318 318 317 317
314 313 312 314 312 312 312 311 312 313 313 313 314 315 314 313 312 312 314 314 323 341 344 341 342 344 346 345 346 345 346 347 347 347 347 346 344 342 342 341 341 340 339 339 339 339 339 340 339 338 338 338 337 336 337 338 337 338 338 337 334 333 332 332 332 331 331 334 334 333 331 332 334 334 334 334 334 333 330 329 329 330 329 327 325 322 319 319 318 318 317 316 317 317 318 319 321
315 313 313 314 313 312 312 312 313 314 316 315 315 315 313 314 315 314 311 315 330 343 343 342 343 344 344 344 345 345 346 347 347 347 347 346 343 342 342 341 341 339 338 339 338 338 339 339 337 338 339 338 337 337 337 337 338 337 336 334 332 331 331 331 332 331 330 333 334 334 333 334 335 334 334 334 333 331 328 328 329 330 331 328 324 321 321 320 318 318 318 317 317 319 320 322 323
315 312 313 313 312 312 312 312 313 315 317 315 314 314 315 320 323 323 318 323 336 340 341 341 340 342 344 344 345 345 346 346 347 347 347 347 343 341 342 340 340 339 338 337 337 337 337 335 333 334 337 337 336 337 337 337 335 333 332 331 331 331 331 332 331 330 331 333 335 334 335 335 335 335 334 333 331 328 326 327 327 328 328 326 322 321 321 320 319 318 318 317 317 319 322 324 325
314 312 313 313 310 311 312 312 313 314 315 314 313 312 318 327 331 333 333 334 339 339 340 341 339 342 344 344 345 345 345 346 347 348 347 347 343 341 341 340 339 338 338 337 337 336 334 331 329 330 332 333 333 333 332 331 331 329 329 328 330 332 332 331 330 331 333 334 335 335 335 335 334 333 331 330 329 327 326 325 326 327 326 324 322 321 321 321 320 318 318 317 317 319 322 324 326
314 312 314 314 311 312 312 312 313 313 314 314 313 311 317 330 335 337 338 338 341 341 341 341 339 339 342 343 345 345 345 345 347 348 347 345 343 341 340 339 337 337 337 336 335 333 331 329 328 330 332 332 331 331 330 328 328 328 328 329 331 332 330 330 331 333 334 335 335 335 334 333 332 330 330 330 328 327 326 326 328 327 324 322 321 321 321 322 321 320 318 317 317 318 320 323 327
314 313 314 314 312 311 312 312 312 312 315 313 312 312 314 328 338 339 337 339 342 342 341 341 339 338 340 341 344 345 345 345 347 348 347 343 342 340 339 337 337 336 336 334 332 330 329 328 329 331 331 332 332 332 331 328 329 331 331 331 331 329 328 330 332 333 333 334 334 333 333 332 330 330 329 329 328 327 327 329 329 326 323 321 321 321 321 322 322 320 319 318 317 317 318 320 324
313 313 314 313 312 311 312 313 312 312 315 313 312 313 312 321 337 342 339 341 342 341 340 340 340 337 339 341 342 344 345 345 346 348 347 342 340 339 337 337 337 337 335 332 329 329 329 328 330 331 332 333 333 332 331 330 331 332 332 330 328 327 329 331 333 333 333 333 333 332 332 331 330 330 329 329 327 328 329 330 329 325 322 321 321 321 321 321 321 322 320 318 318 317 317 318 322
314 314 314 313 312 312 313 313 312 312 313 314 312 312 312 314 330 342 340 341 341 339 339 339 341 340 340 341 340 343 345 345 346 347 346 343 340 338 337 336 336 335 334 332 329 330 330 329 330 331 333 333 331 330 331 332 332 332 332 330 328 330 332 333 333 334 333 333 332 331 331 330 330 329 329 329 328 329 330 331 330 325 322 321 321 321 321 321 322 323 322 319 318 318 318 318 321
314 313 313 312 312 312 313 313 312 313 313 314 313 311 313 311 320 335 337 339 340 339 340 339 342 342 342 342 341 343 345 345 346 346 346 344 340 337 336 336 335 335 334 332 331 331 330 329 329 329 332 331 329 330 332 333 333 332 332 331 331 332 333 333 333 332 332 332 331 330 329 329 330 330 330 329 329 330 331 331 329 324 321 321 320 321 321 321 323 323 322 321 319 318 320 320 321
313 312 314 312 313 312 312 312 312 312 312 314 314 311 313 312 313 323 331 338 339 338 340 340 342 343 343 342 342 343 345 346 346 346 345 344 340 337 336 335 335 334 333 332 332 332 329 328 327 328 330 330 330 331 333 333 333 332 332 332 333 333 332 332 330 330 330 330 329 327 328 329 329 330 330 330 330 331 331 332 330 324 323 322 321 324 323 323 322 321 320 322 321 319 321 322 322
312 312 314 313 311 312 313 313 313 312 312 312 312 312 313 313 312 319 330 336 336 337 338 338 339 341 342 343 343 343 345 346 346 345 344 343 339 336 336 335 334 333 333 332 331 329 327 326 325 328 331 330 330 332 333 333 332 332 332 331 331 331 330 329 328 328 328 328 327 327 328 328 328 329 330 330 330 330 331 331 331 327 326 325 323 326 326 323 322 320 318 320 322 321 321 324 324
311 312 313 312 310 312 314 314 313 312 312 312 311 313 312 313 313 322 332 329 325 331 333 333 336 339 342 341 342 343 344 345 345 345 344 342 339 337 336 335 334 332 331 331 329 326 326 325 325 329 331 331 332 331 331 332 330 329 329 329 329 328 328 328 329 329 329 329 328 329 329 328 328 329 329 329 330 330 330 331 330 328 327 325 323 324 323 321 322 321 318 318 321 322 321 324 325
312 312 310 311 310 312 313 312 313 312 312 311 311 312 311 312 312 318 329 325 320 324 327 331 334 338 342 341 341 343 344 345 344 344 343 341 340 338 336 335 334 332 330 329 327 325 325 325 326 328 329 330 332 331 331 331 329 328 328 328 329 329 330 329 330 330 330 330 330 330 329 329 329 329 329 329 330 330 330 330 330 329 327 325 323 323 322 320 323 325 323 319 319 322 322 323 325
312 312 310 312 311 311 313 312 313 312 311 311 311 311 311 313 311 315 323 323 321 323 326 330 334 339 342 341 341 342 344 345 343 343 342 341 341 339 337 335 333 331 330 329 326 325 326 327 328 329 329 331 332 332 332 330 328 328 329 329 329 330 330 330 330 331 331 331 331 331 331 330 330 330 330 330 330 330 329 329 330 330 329 327 324 323 323 321 323 327 327 321 319 322 323 323 325
311 312 312 311 310 311 313 311 312 311 311 311 309 311 311 311 311 315 319 323 327 328 330 333 337 340 342 342 342 342 343 343 341 340 340 340 341 339 336 335 333 332 330 329 327 326 327 329 331 331 331 331 331 332 331 329 329 330 329 330 330 330 330 330 331 331 331 331 332 332 331 331 331 331 330 330 330 329 329 329 330 329 329 328 327 325 324 323 324 328 328 322 318 320 322 323 325
311 312 311 310 310 311 312 311 312 312 311 310 310 311 311 310 312 316 322 329 334 335 336 337 339 341 341 342 342 342 343 341 340 339 339 340 340 339 336 335 333 332 331 329 327 326 328 331 330 330 331 330 329 330 330 329 330 330 330 330 330 330 330 330 331 332 332 332 332 332 332 332 332 331 331 331 330 330 329 329 330 329 328 329 329 327 325 325 325 328 329 322 317 320 323 323 325
310 311 310 311 311 310 311 312 312 311 311 310 312 312 310 312 314 318 326 334 338 337 338 338 340 341 341 342 342 343 342 340 340 339 339 340 340 339 337 336 334 333 331 328 327 326 328 331 330 329 330 330 329 329 330 330 330 330 330 330 330 331 330 331 332 333 333 333 333 333 333 333 332 331 331 332 331 330 330 330 330 329 329 329 330 328 327 327 326 328 330 326 321 320 323 324 324
310 310 311 311 309 310 311 311 310 310 312 311 311 310 311 314 315 319 328 335 339 337 338 338 340 341 340 343 343 343 341 340 341 338 338 338 337 339 338 337 335 333 331 327 327 327 329 330 330 330 330 330 329 329 330 330 330 331 331 332 332 332 331 332 333 334 334 332 331 331 332 331 330 330 331 331 330 330 330 330 330 329 328 328 329 329 327 327 327 327 328 329 327 323 322 323 324
310 310 312 312 310 312 311 310 309 310 312 311 310 310 312 313 316 327 334 337 340 337 338 339 339 341 340 342 341 341 341 341 340 338 337 334 334 338 338 337 335 333 331 329 329 329 329 330 330 330 330 330 330 330 330 331 331 333 333 334 334 333 333 334 334 333 332 331 331 330 331 330 329 330 330 330 329 329 330 330 329 328 328 328 329 329 328 328 328 328 328 329 330 326 324 325 325
311 309 311 312 312 313 311 309 308 310 311 310 311 311 313 312 316 331 339 338 339 337 338 338 338 340 340 341 341 340 341 340 339 337 337 334 335 338 337 336 334 332 332 332 332 331 330 330 330 331 331 331 331 332 332 332 334 335 335 335 335 335 334 334 333 332 330 331 331 328 329 330 329 330 330 330 329 330 330 330 329 328 328 329 329 329 328 329 329 329 329 329 329 328 327 327 327
310 309 310 310 311 312 311 310 309 312 311 309 312 310 314 313 312 329 340 338 339 338 338 338 338 339 339 340 340 340 341 340 339 338 337 333 335 338 336 335 334 333 333 333 333 332 331 331 332 333 332 333 334 334 335 335 335 335 335 335 335 333 332 332 331 330 330 330 329 327 329 329 329 329 330 330 329 330 330 330 330 329 328 328 329 329 329 330 330 329 329 329 329 329 329 329 329
310 310 311 310 310 312 313 311 310 313 311 308 312 310 314 312 310 328 340 337 339 338 338 338 337 338 339 339 339 340 340 340 340 339 338 333 334 336 334 334 334 333 334 333 333 334 334 334 334 334 335 336 336 336 336 336 335 334 333 333 332 330 329 329 329 328 329 329 328 328 329 329 329 329 330 331 330 330 331 331 331 329 328 328 329 330 330 330 330 330 329 329 329 329 329 330 329
310 311 313 312 311 313 314 313 310 311 311 310 311 310 314 311 313 331 339 337 339 338 338 337 337 337 337 338 339 339 340 340 339 339 338 335 335 335 333 334 334 333 334 333 333 334 335 335 336 336 337 337 337 336 335 335 334 332 331 330 328 327 326 327 328 327 328 328 328 328 328 328 329 329 329 330 330 331 331 331 330 329 328 328 328 329 329 330 330 330 329 329 329 329 329 329 329
311 312 314 312 312 313 314 314 311 309 311 312 311 311 313 314 320 335 339 337 338 337 338 337 336 337 336 337 338 339 340 339 338 338 338 336 335 334 332 334 333 332 333 332 332 333 334 334 336 336 336 337 336 334 334 333 332 330 328 327 326 324 324 325 326 326 327 327 327 327 327 328 328 328 328 329 329 329 330 330 330 329 328 328 328 328 328 329 329 329 329 329 329 329 329 328 327
312 313 314 313 313 314 314 315 313 311 312 313 311 311 312 318 327 338 339 338 338 337 337 337 337 336 336 336 337 339 339 337 337 338 338 335 333 332 333 334 332 331 331 329 329 333 335 335 336 335 335 336 334 333 332 331 329 328 326 325 324 322 321 322 324 324 325 324 324 325 326 327 327 327 327 328 329 329 329 329 329 329 328 328 328 328 329 329 328 328 329 329 329 329 328 327 326
312 312 313 313 313 314 314 314 312 312 313 312 312 312 312 320 331 339 339 338 338 337 338 337 337 337 336 336 336 337 337 336 337 338 337 334 330 331 333 334 331 331 329 327 329 333 335 335 336 335 334 334 332 331 329 328 327 325 325 324 321 320 320 322 323 322 322 320 319 318 318 321 324 325 326 327 328 328 328 328 328 328 328 328 328 328 328 328 328 328 328 328 329 329 328 325 325
313 312 312 312 312 314 314 313 311 310 313 312 311 312 310 319 333 339 338 339 338 338 338 338 338 337 337 336 336 337 337 337 337 338 338 335 331 330 333 332 331 331 328 327 331 333 333 333 334 334 334 332 330 329 326 325 324 322 322 322 321 320 320 321 321 320 319 316 314 310 310 313 317 321 322 323 324 326 326 326 325 325 324 325 325 326 326 327 327 328 328 328 327 328 327 325 326
314 313 313 313 313 314 314 312 312 311 313 313 311 311 311 319 332 337 338 340 338 337 338 338 338 337 337 336 336 336 336 337 337 338 339 336 333 332 333 331 330 330 327 328 332 331 331 332 333 332 332 330 329 327 325 323 323 322 321 321 321 321 320 320 319 318 317 314 311 307 307 310 312 315 317 319 321 323 324 323 321 320 319 319 319 320 322 323 325 326 328 328 327 328 328 327 327
316 313 314 315 312 313 314 314 314 313 314 314 311 312 314 316 323 330 334 337 337 337 338 337 338 337 337 337 336 336 335 336 337 338 339 338 336 334 333 332 330 329 329 330 332 332 331 332 333 332 332 330 328 327 325 324 323 324 324 322 322 321 319 319 319 318 316 312 309 307 307 309 310 312 314 314 316 317 317 316 315 314 315 316 316 318 320 322 323 324 326 327 327 327 328 327 327
316 314 314 314 313 313 314 316 317 315 315 316 314 315 316 316 320 327 328 329 333 337 337 337 337 337 337 337 336 336 336 336 336 337 339 339 338 335 335 334 332 331 332 333 333 332 330 332 333 332 331 330 329 327 324 324 325 324 324 323 321 320 319 319 318 316 314 310 308 308 308 309 310 311 311 311 311 311 312 312 312 313 315 316 318 319 321 322 323 323 325 325 326 327 327 327 327
315 316 314 314 315 315 315 317 318 317 317 317 316 315 316 316 322 328 326 326 332 335 337 338 337 336 336 336 336 337 336 335 335 336 338 338 338 336 335 335 335 335 335 335 334 334 332 332 334 334 332 331 330 327 322 323 325 324 323 320 318 319 318 317 314 312 311 309 307 308 309 311 312 312 312 312 311 311 312 312 312 313 315 317 319 320 322 323 323 322 323 324 325 325 325 326 327
315 317 316 315 317 318 317 319 318 317 316 317 316 315 316 316 319 323 323 327 332 333 335 337 337 336 336 335 335 335 335 335 335 336 338 338 338 337 336 336 335 335 336 335 335 335 333 332 332 333 331 331 331 328 323 323 326 325 321 317 315 315 314 313 311 309 309 308 308 309 311 312 314 314 314 313 312 312 312 312 312 313 314 316 318 320 321 321 321 321 320 322 324 325 324 325 325
313 318 318 316 317 319 320 320 317 315 315 316 315 315 315 316 317 317 318 324 330 331 333 335 336 336 335 334 334 334 335 335 334 335 337 338 338 336 335 334 333 333 334 335 334 334 333 331 331 329 326 330 332 330 328 326 326 326 320 315 314 311 310 309 309 308 307 307 308 310 312 312 313 313 312 311 312 312 312 311 310 310 312 313 316 318 319 319 320 319 318 319 321 323 324 324 325
315 318 317 313 315 319 321 321 316 316 316 316 316 316 315 316 316 315 315 322 327 328 330 333 334 334 334 334 333 333 334 334 334 335 335 338 337 333 331 332 332 332 334 335 334 333 331 329 330 327 322 329 332 331 330 327 325 323 317 314 313 309 307 307 307 307 307 307 308 310 311 311 312 312 310 309 310 311 310 307 306 307 307 309 311 313 315 315 315 314 314 315 317 320 323 325 325
316 316 314 313 315 319 322 319 317 317 316 315 317 317 315 316 317 316 316 321 324 325 327 329 332 333 333 333 333 333 333 333 333 334 334 336 334 329 328 329 331 332 334 334 333 332 330 328 329 326 322 328 332 331 329 328 326 321 314 315 313 309 307 307 307 307 307 307 309 310 310 310 310 309 308 308 309 308 306 306 305 305 305 306 306 307 308 308 308 311 313 314 317 320 321 323 323
314 312 313 313 314 317 318 317 317 318 316 314 317 317 315 315 317 317 317 319 320 320 320 321 323 326 329 331 332 333 333 334 334 333 334 334 330 328 328 329 330 331 331 332 332 331 329 327 328 326 322 326 332 330 327 328 327 319 314 315 312 309 308 307 307 307 307 307 307 308 309 309 308 306 307 308 307 306 305 306 306 306 306 306 305 305 305 306 306 309 311 312 317 319 320 321 321
312 312 313 313 315 317 317 316 317 316 315 315 316 316 316 315 316 318 317 318 317 317 318 318 318 317 320 325 329 331 333 333 333 333 333 331 330 330 330 330 330 330 328 329 330 329 327 327 327 325 322 325 331 328 325 327 324 316 314 315 311 309 308 307 308 308 306 306 306 306 306 307 306 306 307 307 306 306 306 306 306 306 306 306 306 306 306 306 306 307 308 308 311 314 314 315 314
311 314 315 314 315 316 316 316 316 316 315 315 314 315 316 315 316 317 317 317 316 318 319 320 320 319 318 319 323 328 330 331 331 331 331 330 331 332 332 331 330 331 330 328 328 327 327 327 326 324 322 325 330 328 325 325 321 315 315 314 311 309 308 307 308 308 307 306 306 306 306 306 306 306 306 306 306 306 306 306 306 306 306 306 306 306 306 306 306 306 306 306 307 307 307 307 306
312 315 315 314 315 315 315 315 315 315 316 315 313 315 316 315 316 317 317 318 319 320 321 322 322 322 320 317 320 325 327 329 330 330 330 329 331 332 333 333 332 331 331 329 328 329 327 327 325 323 322 326 330 328 324 321 317 313 315 314 312 310 309 308 308 308 307 306 306 306 306 306 306 306 306 306 306 306 306 306 306 306 306 306 306 306 306 306 306 306 306 305 306 305 305 305 306
312 314 315 315 314 314 314 314 313 314 316 314 312 315 316 315 317 316 316 318 320 322 323 323 323 322 322 321 323 325 326 327 328 328 329 329 330 331 331 332 332 331 328 327 327 327 327 326 325 323 322 325 328 324 320 317 315 314 316 316 315 313 310 308 308 308 307 306 306 306 306 306 306 306 306 306 306 306 306 306 306 306 306 306 306 305 305 305 305 305 305 305 305 305 305 305 305
311 312 313 314 314 315 314 314 314 315 316 315 313 315 316 317 317 316 315 318 322 324 324 323 324 323 324 325 325 326 326 327 328 329 329 329 329 330 330 330 330 328 325 325 325 325 326 326 324 322 322 322 320 317 314 314 314 315 317 318 318 316 314 311 309 308 308 307 306 306 306 306 306 306 306 306 306 306 306 306 306 306 306 306 306 305 305 305 305 305 304 304 304 304 304 304 304
309 309 312 314 315 316 314 312 314 315 316 316 314 314 315 315 315 313 316 321 323 325 324 325 325 325 325 326 325 326 326 326 326 326 326 325 325 325 327 329 329 327 325 325 323 323 324 324 322 322 321 317 316 316 314 313 314 317 319 319 320 319 317 316 311 308 308 307 307 306 306 306 306 306 306 306 306 306 306 307 306 306 306 306 306 306 305 305 305 305 305 304 303 303 303 303 303
310 309 312 312 312 316 316 311 311 313 316 315 313 315 316 316 315 314 318 324 324 323 325 325 326 326 326 326 325 325 325 325 325 324 323 321 320 322 324 327 328 327 325 323 321 320 321 323 323 324 320 317 317 318 317 315 316 319 321 322 322 320 319 318 313 308 308 308 307 307 307 307 307 306 307 306 307 307 307 307 307 307 307 306 306 306 306 306 305 305 305 304 304 303 303 303 302
311 311 312 310 310 314 316 314 312 312 315 314 311 314 317 317 317 316 319 325 325 323 324 325 326 327 326 325 325 325 325 325 325 322 319 318 320 322 323 325 327 327 323 321 322 320 320 323 324 324 321 318 316 316 315 316 318 321 322 323 322 320 319 318 313 309 308 308 307 307 307 307 307 307 307 307 307 307 307 307 308 308 308 308 308 307 307 307 306 305 305 305 305 304 304 303 303
309 311 311 311 312 314 314 314 315 314 314 313 312 313 314 316 317 317 319 325 326 324 323 324 324 325 326 325 324 323 323 322 322 318 317 320 321 320 320 322 326 328 325 324 325 322 322 324 325 324 323 321 319 317 315 315 317 321 323 323 322 320 317 316 313 309 308 309 308 308 307 307 307 307 307 307 307 308 308 309 310 311 311 311 310 309 309 308 307 307 307 306 306 306 305 305 304
308 310 309 310 314 315 313 314 315 315 313 312 313 313 314 316 317 317 319 322 326 325 323 323 324 324 324 323 322 322 320 319 319 316 318 322 321 319 318 318 320 322 321 322 327 327 326 327 327 325 324 323 323 321 319 317 318 321 323 323 323 321 317 314 312 310 308 309 308 308 308 307 307 307 308 308 309 310 311 312 313 314 315 315 314 313 312 311 310 309 309 309 308 308 307 307 306
310 311 311 312 311 311 312 312 312 313 313 312 313 314 315 315 314 316 317 319 322 325 323 323 324 323 323 322 322 322 321 320 319 318 320 322 322 320 319 319 319 318 316 319 326 329 329 329 328 326 325 324 324 324 323 321 320 322 323 322 322 321 319 316 313 311 312 312 310 309 309 309 309 309 308 309 311 313 314 315 316 316 317 317 317 317 316 315 314 314 313 312 311 311 310 309 308
310 312 313 312 312 311 313 312 310 311 312 312 313 314 315 314 312 314 315 315 318 322 324 324 324 323 322 322 323 323 323 322 321 322 323 323 324 323 323 323 324 323 323 325 328 329 330 330 329 327 326 327 326 326 325 323 322 323 323 321 322 323 322 320 316 314 317 318 313 310 310 311 311 312 312 312 314 316 317 318 318 318 317 318 318 318 318 317 317 317 316 316 315 314 313 312 311
Wind_Speed
9 10 12 13 14 13 8 5 2 1 1 1 2 1 1 1 2 2 5 5 1 1 1 2 5 6 5 2 5 6 6 3 3 1 1 2 11 18 25 27 27 31 31 30 27 25 24 23 22 20 20 18 18 16 15 15 14 13 13 14 14 15 15 15 15 15 14 15 15 14 13 13 12 12 12 12 12 12 12 12 11 10 10 11 10 8 9 10 12 13 12 12 12 13 15 16 16
11 14 14 15 16 10 6 3 1 1 2 2 3 2 1 1 1 1 8 7 1 3 6 9 10 8 5 6 7 7 6 4 2 3 5 8 16 20 25 27 27 30 30 29 27 26 24 23 21 20 20 19 18 17 16 15 15 14 13 14 14 14 14 14 14 14 14 14 14 14 13 13 12 12 12 13 13 12 12 12 12 12 12 12 11 8 7 8 10 11 12 12 12 13 15 16 17
14 16 16 16 13 6 4 1 1 2 3 4 3 2 1 3 4 2 6 1 5 4 5 6 8 7 4 6 5 3 4 4 3 6 8 12 17 20 25 26 26 28 29 28 26 25 23 22 21 20 20 19 19 18 17 16 15 15 14 13 13 13 13 13 13 13 14 14 14 14 13 12 12 11 11 12 12 12 12 12 12 13 12 11 12 9 6 7 9 10 11 12 12 13 15 17 18
15 16 16 15 9 4 3 1 0 2 3 4 1 2 3 3 4 1 5 2 6 1 4 4 4 5 4 4 4 3 4 3 3 7 11 13 16 21 24 25 26 26 27 26 24 23 21 21 20 20 20 20 20 19 18 17 16 15 14 13 13 12 12 12 12 13 14 14 14 13 12 11 10 11 11 11 12 12 12 12 11 12 14 13 12 10 7 6 8 9 11 12 12 13 14 17 18
15 16 16 12 6 2 2 0 1 2 4 2 1 1 3 3 2 2 3 3 7 3 2 3 3 4 5 6 3 2 4 4 5 8 12 15 18 22 24 25 26 26 26 25 23 22 20 20 19 19 20 20 20 20 19 18 17 16 14 13 12 12 11 11 12 12 13 13 14 13 12 11 11 13 13 12 12 13 13 12 11 12 14 14 12 11 9 9 7 7 10 12 12 13 14 17 18
15 15 12 8 3 3 2 2 3 4 3 2 1 1 3 2 3 4 5 6 8 7 3 2 4 5 5 5 3 4 3 4 7 8 13 18 20 23 24 25 25 26 25 24 23 21 19 19 18 18 19 20 21 20 19 18 17 15 14 13 12 12 11 11 11 11 12 12 13 13 12 12 13 14 14 14 13 13 13 12 11 12 13 13 12 12 13 12 9 8 11 12 12 13 13 15 18
16 12 8 5 2 1 2 3 4 4 1 3 2 1 2 4 4 6 6 5 4 6 6 4 8 8 5 3 4 3 1 5 8 11 17 20 22 23 24 24 25 26 24 23 21 19 19 18 18 18 19 20 20 20 18 17 16 15 14 12 11 12 12 11 11 11 12 12 13 13 12 13 14 14 14 14 13 12 11 10 11 11 13 13 11 11 13 13 10 9 12 13 12 13 13 14 16
15 8 4 4 1 0 2 2 3 2 1 2 2 5 8 7 6 6 5 3 1 3 6 9 11 6 3 2 4 2 1 7 10 15 21 20 22 23 23 24 25 25 23 21 19 19 18 18 18 20 21 21 21 19 18 17 16 15 13 12 12 12 11 11 11 11 11 12 12 13 13 13 13 12 12 12 12 11 10 9 10 11 11 11 10 10 10 10 9 9 11 12 12 11 12 13 12
12 5 3 2 1 1 1 2 2 2 2 3 4 8 11 10 8 8 7 5 3 4 7 13 11 4 5 5 4 2 3 7 10 16 21 20 21 22 23 23 24 25 22 19 19 19 18 19 20 21 22 21 20 19 18 16 15 14 13 13 12 11 11 11 10 10 10 12 13 13 13 12 12 12 12 11 11 11 9 8 10 10 10 10 10 8 8 8 8 8 9 11 11 9 10 11 11
9 3 3 1 2 2 2 2 1 1 3 4 5 10 11 9 8 9 9 7 6 7 8 11 7 7 10 7 5 3 4 7 11 17 19 19 21 22 23 22 24 24 21 19 19 19 18 20 20 20 21 20 20 19 18 17 15 14 13 13 12 11 10 10 10 10 11 12 13 13 13 12 13 13 13 12 11 10 8 8 9 10 10 10 9 8 7 6 6 6 6 8 8 8 9 10 10
5 2 3 1 2 3 3 2 1 2 3 4 5 8 10 8 6 8 10 7 6 8 10 9 6 11 11 6 6 3 4 7 11 18 19 19 20 22 23 22 22 22 21 19 19 19 18 19 18 18 19 20 20 19 18 16 16 15 14 12 11 10 10 10 10 11 12 12 12 12 13 13 13 12 13 12 11 10 8 8 9 10 9 9 9 8 7 5 5 5 5 6 6 7 8 8 9
3 1 2 1 2 2 2 1 2 3 4 3 2 6 11 6 3 5 9 7 7 9 10 8 9 13 9 5 6 3 6 8 11 18 20 19 20 22 23 22 20 20 20 19 18 19 18 18 18 17 18 19 19 18 17 16 15 14 13 11 10 11 10 10 11 12 12 13 13 13 14 13 12 12 12 11 10 10 9 9 9 10 9 8 8 8 7 6 5 4 4 5 6 6 7 8 8
3 2 2 2 1 1 1 1 2 3 2 0 1 10 12 3 1 1 6 7 9 9 7 9 14 12 6 6 7 5 8 10 12 18 21 19 20 22 22 22 20 19 19 18 18 18 18 18 17 17 17 18 18 17 17 16 15 14 12 12 11 12 11 12 12 13 13 13 13 13 12 12 12 12 12 11 10 9 9 9 9 9 8 7 7 7 6 5 5 4 3 4 5 7 8 8 9
5 3 3 1 0 1 2 1 1 2 0 2 1 11 11 4 4 4 7 8 6 4 7 12 16 8 5 6 6 9 10 13 15 18 22 20 21 21 20 21 19 19 19 19 19 18 17 16 16 16 16 16 16 15 16 16 15 14 12 12 13 13 12 12 12 13 13 13 12 12 12 12 12 12 11 10 9 9 9 8 8 7 7 7 7 7 6 5 5 4 3 3 4 6 8 9 9
7 5 2 1 1 1 2 1 1 2 2 2 4 12 9 6 6 7 7 6 4 6 12 13 11 3 6 8 6 14 14 15 17 19 23 20 20 19 17 18 18 18 18 18 18 17 16 15 15 15 16 16 16 15 15 15 14 14 13 14 14 13 13 12 13 13 13 13 13 13 13 12 11 10 9 9 9 9 9 8 7 6 6 6 6 6 6 5 5 4 4 3 4 6 8 9 10
8 5 1 1 2 2 3 2 1 2 2 1 6 14 8 7 7 4 3 6 7 11 11 8 7 3 6 7 5 18 18 18 19 21 24 20 20 18 16 17 17 18 17 18 18 17 16 16 16 15 16 16 16 16 15 15 15 15 14 14 14 13 13 14 14 13 13 13 13 13 12 11 10 9 8 8 9 8 8 7 6 5 5 6 6 6 6 5 5 4 4 5 5 7 8 9 11
7 4 1 2 2 3 3 4 3 1 1 1 6 14 7 7 7 7 6 11 12 9 6 5 5 3 5 5 7 22 20 19 21 22 24 21 22 20 19 19 18 18 17 18 18 18 17 17 17 16 17 16 16 16 16 16 15 15 15 14 14 15 15 14 14 13 13 13 12 12 10 9 9 8 8 8 8 8 7 6 5 5 5 5 6 6 6 5 5 4 5 6 6 7 8 10 11
5 2 2 2 2 3 4 5 3 1 2 3 6 9 5 5 4 8 8 10 10 7 5 4 4 4 7 5 9 23 21 20 22 24 26 24 24 23 24 22 20 20 19 19 19 18 17 17 18 17 17 16 16 17 17 17 16 16 15 15 15 16 15 14 13 11 11 12 12 11 10 9 8 8 8 8 8 7 6 5 5 5 5 5 5 5 5 6 5 5 4 5 6 7 8 9 11
3 1 2 3 3 2 3 4 2 1 2 6 6 6 4 6 3 5 3 4 6 5 4 3 5 7 8 8 15 24 22 21 23 25 26 27 26 24 25 22 20 21 19 20 19 18 18 17 16 17 18 17 17 17 17 17 16 16 16 16 16 16 14 13 12 11 11 11 11 11 9 8 8 7 8 7 7 6 5 5 5 5 5 5 5 4 5 6 5 4 4 4 5 7 8 8 10
2 1 2 3 4 3 4 6 6 5 5 6 5 5 6 6 1 5 2 3 4 3 4 4 6 9 11 13 21 25 23 23 25 26 26 29 27 24 25 21 20 21 19 20 19 19 20 19 18 19 18 18 18 17 17 16 16 16 16 16 15 14 13 12 11 10 10 10 10 9 8 7 7 7 7 7 6 6 5 5 6 6 5 5 5 4 3 5 5 4 4 4 5 7 8 8 8
3 3 2 2 3 3 5 9 9 8 6 5 5 6 6 5 1 4 4 4 3 5 7 6 8 15 16 19 25 26 25 26 27 28 27 29 28 25 26 23 22 23 20 19 18 19 21 21 22 20 17 18 19 18 17 16 17 16 15 15 13 13 12 12 12 11 10 9 8 8 7 6 6 6 6 6 5 5 5 6 6 6 6 5 5 4 3 4 4 4 5 6 5 6 8 9 8
3 3 2 4 5 3 6 9 9 7 6 5 4 5 4 3 3 2 7 5 1 3 7 8 10 16 20 24 28 28 27 28 28 29 28 29 28 27 26 24 24 23 18 17 17 18 22 23 22 20 17 17 17 17 17 16 16 15 14 13 12 11 11 11 10 9 8 7 6 6 5 5 4 5 5 5 4 4 5 6 7 7 6 6 5 4 3 4 3 4 4 6 7 7 8 9 8
3 2 2 5 7 5 7 8 8 7 5 4 3 4 5 2 4 3 9 7 5 5 5 7 10 15 20 24 29 30 30 30 30 30 30 30 30 29 27 26 25 21 17 18 19 22 25 25 23 21 19 17 16 15 15 14 14 14 12 12 11 10 10 9 9 7 7 6 6 5 5 4 4 4 5 4 3 3 4 5 7 7 7 6 5 4 3 3 3 3 3 5 7 8 8 9 9
4 2 1 5 8 8 10 10 11 11 9 8 6 6 7 4 3 3 7 9 11 10 6 6 11 16 20 23 28 31 31 29 28 28 28 28 28 28 27 27 24 18 19 21 24 27 29 26 23 20 19 17 15 14 13 12 12 12 11 11 10 9 9 8 7 6 6 6 6 6 6 5 5 5 5 5 4 4 4 5 7 7 6 6 5 4 2 2 2 3 3 4 7 8 8 9 9
3 4 2 3 6 9 11 12 14 16 15 11 7 7 8 7 4 4 6 8 9 8 3 9 14 18 22 24 28 29 28 26 24 23 23 24 24 24 25 25 22 19 22 22 24 29 28 24 20 18 17 16 15 14 12 11 10 10 9 9 9 8 7 7 6 6 6 6 6 7 7 7 7 7 6 6 6 6 5 5 6 6 6 5 5 4 3 2 3 3 3 3 6 8 8 9 9
4 6 4 3 5 9 11 12 14 14 12 7 5 5 5 4 5 5 7 7 5 3 7 12 16 20 23 24 27 27 25 24 23 20 18 19 21 22 23 23 21 22 24 23 24 27 26 23 21 19 17 16 15 13 12 10 9 8 7 7 7 7 6 6 5 5 6 6 7 7 8 8 8 9 8 8 7 7 6 5 6 6 6 5 5 5 4 4 4 4 3 3 6 8 8 9 9
4 6 5 7 8 10 10 10 11 9 8 7 7 3 1 5 7 4 7 6 4 8 10 13 16 20 23 23 25 25 23 24 24 20 17 17 19 22 24 24 23 23 24 25 26 27 26 25 23 21 18 16 15 13 12 11 9 8 7 7 6 5 5 5 6 6 7 6 7 7 8 8 8 10 10 8 7 6 5 5 6 6 5 5 6 6 6 5 5 6 5 4 5 7 9 10 10
2 4 4 6 7 11 10 10 10 6 6 9 8 2 4 6 6 3 6 8 8 11 13 14 16 18 21 22 23 25 24 25 25 21 18 18 20 21 24 26 25 25 25 25 26 27 28 25 22 20 18 16 15 13 11 10 10 9 8 7 6 6 6 7 8 8 7 6 5 6 7 8 8 9 10 8 7 6 5 5 6 5 5 6 7 8 8 7 7 7 7 6 6 6 8 11 11
1 2 3 3 3 6 8 6 5 4 4 5 8 2 2 5 3 3 8 11 10 11 14 15 15 17 20 22 24 25 25 26 25 21 18 19 20 21 24 26 25 26 27 26 26 27 27 24 21 19 17 16 14 13 12 11 10 9 8 8 7 7 8 8 8 7 7 5 4 5 6 8 8 8 9 8 8 7 5 6 6 5 5 6 7 8 9 8 8 8 8 8 7 7 9 12 12
2 2 1 2 2 3 4 1 1 4 3 6 10 3 4 5 3 6 10 14 14 13 15 15 16 17 20 23 24 25 26 26 24 21 20 18 19 21 24 26 26 27 28 27 26 25 23 21 20 18 17 16 14 13 12 11 10 9 9 8 7 8 8 7 6 6 6 5 4 5 6 6 6 7 8 8 8 7 6 7 6 5 6 7 7 8 8 8 8 8 9 9 9 9 10 11 11
1 2 1 1 2 3 3 2 3 3 1 8 10 5 5 4 4 10 13 15 16 15 16 16 16 18 21 24 24 26 27 25 23 21 20 17 17 20 24 25 25 28 28 27 25 22 20 19 18 18 17 16 15 13 12 11 10 9 9 8 7 8 7 6 6 6 6 5 5 6 5 5 5 6 7 6 7 7 7 7 7 6 6 7 7 7 8 8 8 8 9 9 10 10 10 10 10
1 2 2 0 2 3 1 2 5 3 2 7 9 4 5 3 3 12 15 16 17 15 16 16 16 18 21 24 24 26 26 25 23 22 20 17 17 22 24 24 25 28 28 25 22 19 19 18 17 18 18 17 15 13 12 11 10 9 8 8 8 8 8 7 7 6 5 5 5 4 4 4 4 5 6 6 7 7 8 8 7 7 6 6 7 7 8 8 9 8 9 9 9 9 9 9 10
1 1 2 2 2 2 1 1 3 2 2 5 7 3 3 1 2 12 16 17 16 13 14 15 15 16 19 22 24 26 26 26 24 22 22 19 19 23 24 25 25 26 25 21 18 19 21 19 16 17 17 15 14 13 12 11 10 10 9 9 8 8 8 7 6 6 4 4 4 3 2 3 3 4 6 7 8 8 7 7 8 8 7 7 7 8 8 8 9 8 8 8 8 8 8 8 10
1 1 1 1 2 2 1 1 1 1 1 4 6 5 4 2 3 13 16 16 15 13 14 14 14 15 16 18 22 25 26 25 24 23 23 20 21 24 24 25 25 24 22 18 17 19 20 18 16 17 16 14 14 13 12 12 12 11 11 10 8 6 6 5 5 4 3 3 2 2 2 2 2 3 5 6 7 7 7 7 8 8 8 8 9 8 8 8 9 8 8 8 8 7 6 7 9
3 2 1 1 2 2 3 2 1 1 2 4 6 8 7 1 5 13 15 15 14 12 13 14 14 15 17 17 19 24 26 25 23 23 23 20 22 24 24 25 24 23 21 19 19 17 16 17 18 18 16 15 15 14 13 13 12 12 10 8 7 5 5 5 4 4 4 2 1 1 1 1 1 1 3 4 5 5 6 6 7 7 7 8 9 9 9 9 9 9 9 8 8 7 6 7 9
4 2 1 1 2 3 4 3 0 0 3 5 6 8 7 4 6 11 14 15 14 12 12 13 15 15 17 18 19 21 25 25 22 23 23 22 23 24 25 26 24 23 21 20 19 16 15 17 18 17 16 16 15 14 13 12 12 10 8 6 6 6 6 6 5 5 4 2 1 0 1 1 1 1 1 2 2 3 3 4 4 5 6 7 8 8 9 10 10 10 10 8 7 6 6 7 9
3 2 2 2 2 4 3 1 1 1 3 3 4 5 4 4 6 9 12 14 12 12 12 13 15 15 16 18 20 20 23 24 22 22 24 23 23 24 25 26 25 24 22 21 18 16 17 17 17 17 16 16 14 12 11 10 8 6 4 5 5 7 7 7 6 5 3 2 2 2 1 0 1 1 1 1 1 1 1 1 1 2 3 4 5 6 7 8 8 9 9 8 6 5 6 8 9
2 2 2 2 3 4 2 0 1 1 3 1 2 4 2 2 4 6 8 11 11 12 12 12 14 15 16 17 19 20 20 23 24 24 24 25 25 25 25 26 26 25 24 22 19 17 18 17 16 16 15 13 12 10 8 7 5 2 2 3 5 6 7 6 5 5 3 2 3 3 3 1 1 1 1 1 1 1 0 1 2 3 3 3 4 5 5 6 5 5 5 5 6 5 7 9 9
1 1 2 1 2 3 1 1 3 2 2 0 3 4 2 2 1 1 2 4 7 10 11 11 12 14 15 15 16 18 18 21 24 25 25 26 27 26 27 27 27 25 24 23 22 19 19 19 18 16 14 13 11 8 6 5 4 3 2 3 4 5 6 6 6 5 3 3 4 5 5 4 2 1 1 1 1 0 1 1 2 2 2 2 2 3 3 4 3 4 2 1 3 3 6 8 8
2 2 2 1 0 1 1 1 3 3 0 1 4 4 3 3 2 2 1 3 4 6 9 10 12 13 14 14 15 16 18 20 23 25 26 26 27 28 28 29 28 27 26 25 23 21 19 19 19 17 15 14 11 8 6 5 5 4 3 3 4 5 5 6 6 5 4 5 6 6 6 6 5 4 3 3 3 2 3 3 3 2 1 1 1 2 2 2 3 3 3 2 0 1 4 5 6
2 3 4 2 1 3 1 1 2 1 2 4 3 4 3 2 4 5 2 2 4 5 7 9 11 13 13 14 15 16 17 19 21 24 27 28 29 29 29 30 30 28 27 24 22 22 21 19 19 19 18 15 10 7 5 5 6 5 3 2 3 4 5 6 6 6 6 6 6 6 6 7 7 6 5 5 4 5 5 5 5 3 2 1 2 2 3 4 5 5 5 3 2 1 3 4 5
2 5 8 6 3 3 2 1 1 2 3 4 1 2 3 3 3 4 3 4 5 5 7 11 13 14 14 14 16 16 16 17 19 22 26 29 30 31 31 30 26 24 24 23 20 21 20 18 16 15 14 13 10 6 5 6 7 5 2 1 1 3 5 6 6 6 6 5 5 5 5 6 7 6 6 5 5 5 5 6 5 4 2 1 1 1 2 3 3 4 5 4 4 3 2 3 4
1 3 7 7 4 2 2 1 1 2 2 2 1 1 3 3 3 1 2 6 7 5 7 10 12 15 15 16 16 16 16 16 16 17 23 30 31 30 27 22 17 17 21 22 19 18 18 17 14 10 10 12 12 11 9 8 7 5 2 1 3 5 5 6 6 5 5 5 4 4 4 5 6 6 5 5 5 5 6 6 6 5 4 2 1 1 0 1 2 3 3 3 4 5 3 2 2
1 1 5 7 5 4 3 2 1 0 0 1 1 2 2 3 2 1 2 5 6 6 7 8 10 13 15 16 16 16 16 15 15 16 20 27 29 22 17 16 16 18 22 23 20 18 17 16 12 11 14 16 14 12 10 8 7 4 3 3 3 5 6 5 6 5 5 5 4 3 4 5 6 5 5 6 7 7 8 7 7 7 5 4 2 1 0 2 3 3 2 2 2 3 4 4 3
0 2 4 5 4 3 2 2 2 1 1 3 1 3 1 2 1 1 3 5 6 6 7 7 9 11 13 16 17 18 18 15 15 14 14 18 18 11 10 11 13 19 23 23 22 19 15 12 10 12 17 18 14 11 10 9 8 5 4 4 3 4 5 5 5 4 4 4 4 3 4 5 6 6 6 8 9 10 9 9 9 9 8 7 6 4 2 1 1 1 1 2 3 3 3 4 4
2 5 6 5 4 4 2 1 3 1 2 4 1 4 1 3 0 1 2 3 3 2 3 3 5 8 11 14 17 19 19 17 15 11 8 10 9 9 10 8 10 17 22 22 21 16 13 12 11 13 17 17 13 11 10 11 11 8 6 5 3 3 5 5 5 4 4 4 4 4 5 5 6 6 8 9 10 10 10 10 10 10 10 10 9 8 7 6 5 5 3 3 3 3 2 2 2
6 6 6 5 3 2 2 2 2 2 3 2 2 5 1 3 1 1 1 1 1 3 3 2 4 6 9 11 15 18 18 18 15 9 8 9 9 10 12 13 14 19 22 23 20 16 14 15 13 13 16 18 15 12 11 12 12 10 8 7 4 4 4 4 4 4 5 5 5 5 6 6 6 7 9 10 10 10 9 10 10 9 9 10 10 10 10 9 9 8 7 6 4 2 1 1 1
4 2 3 4 2 1 1 1 0 3 3 2 2 3 2 3 2 1 1 2 3 4 5 5 7 8 9 9 10 14 15 15 11 9 10 10 10 12 15 17 17 19 22 24 23 21 19 16 15 16 19 20 16 14 13 14 14 12 11 9 6 6 5 4 4 4 5 5 6 6 7 7 7 8 9 9 9 9 9 10 9 9 9 9 10 10 10 10 10 10 9 8 7 5 4 3 3
1 2 4 4 2 1 2 1 1 3 1 1 2 1 1 2 1 2 4 5 5 5 6 8 10 11 10 8 5 8 11 10 9 9 10 10 10 13 14 15 18 19 20 20 21 22 19 15 17 21 23 22 17 15 15 16 16 14 13 11 8 7 6 5 4 4 5 6 7 7 8 8 8 8 8 8 8 8 9 9 8 8 8 9 9 9 9 10 10 10 10 9 8 7 7 6 6
4 4 4 4 3 3 3 1 1 2 1 1 2 1 1 1 1 2 4 6 6 6 6 6 7 6 4 4 5 5 6 7 8 8 10 10 8 8 9 11 14 15 14 15 15 14 14 15 18 21 23 21 18 16 16 18 18 16 14 12 8 8 7 6 5 4 4 6 7 8 8 8 8 8 8 7 7 7 8 8 8 7 7 8 8 9 9 9 10 10 10 9 8 8 8 7 7
2 1 2 4 4 3 3 3 3 3 1 1 1 1 2 2 0 3 5 5 4 4 3 2 3 5 9 13 14 13 12 11 10 11 11 9 4 1 4 7 8 9 11 11 8 7 11 14 17 20 21 22 21 20 19 20 20 17 15 13 10 9 8 7 7 6 5 7 8 8 8 8 8 8 7 7 7 7 7 7 7 7 7 8 9 9 9 9 10 10 10 9 8 9 8 7 7
1 0 1 2 3 3 1 1 1 1 1 1 2 1 1 0 0 2 3 1 3 3 2 5 8 11 15 18 20 21 21 20 19 19 18 16 13 9 3 4 5 8 9 8 7 8 11 14 16 18 20 23 26 25 23 22 22 19 17 14 11 10 10 8 8 7 7 7 8 8 8 8 8 9 8 7 7 7 7 7 7 7 7 8 9 9 10 9 10 10 10 9 9 9 9 8 8
3 2 3 1 0 3 3 2 2 1 2 2 1 1 1 1 2 3 3 3 3 3 4 6 8 12 16 19 23 26 24 21 19 17 15 14 14 13 10 2 6 6 8 9 9 12 14 16 16 16 18 23 25 24 24 24 23 21 18 15 13 12 11 9 8 9 8 8 9 10 9 8 9 8 7 7 7 7 7 6 6 6 6 7 7 8 9 9 9 9 10 10 9 9 9 8 8
3 3 5 4 1 2 2 2 2 0 3 2 1 0 1 2 2 4 4 4 4 4 4 5 6 10 13 15 19 23 21 16 13 11 9 11 13 14 16 8 7 4 10 12 11 11 13 15 15 13 14 18 20 21 22 24 24 22 19 16 14 13 11 9 10 11 10 10 10 10 9 8 8 8 7 6 6 5 5 5 6 6 6 6 6 7 7 8 8 8 8 9 9 9 9 9 8
2 2 5 3 2 2 2 1 2 3 3 1 1 0 1 4 2 2 5 5 5 5 3 4 5 6 8 8 11 17 18 15 13 13 11 11 14 16 16 11 2 3 9 10 12 13 13 14 14 14 12 13 16 19 21 23 24 22 19 17 15 13 11 11 12 12 12 11 10 9 9 8 8 8 7 6 6 5 5 5 5 5 5 6 5 5 5 6 6 7 7 8 8 8 8 9 9
4 4 4 1 1 2 2 1 1 4 3 1 2 2 3 4 2 3 6 6 6 7 5 4 3 3 4 4 6 10 12 12 14 15 13 11 12 13 12 9 5 4 6 4 9 14 15 15 16 17 15 15 15 16 19 22 23 22 19 17 15 14 12 12 13 14 13 12 11 10 10 9 9 8 8 7 7 6 6 5 4 4 4 4 4 4 4 4 4 4 5 6 7 7 7 7 7
2 4 4 1 1 0 1 2 1 1 3 2 3 3 2 1 0 1 2 3 5 7 5 4 3 3 4 5 6 8 9 11 14 14 13 13 11 10 11 12 10 9 7 4 8 14 16 16 17 18 17 17 16 16 18 21 23 23 20 17 16 15 14 13 14 15 13 12 13 13 12 11 10 10 9 8 7 6 6 4 3 2 1 2 3 4 5 5 4 3 3 3 3 4 5 5 5
2 3 3 3 3 3 4 3 1 0 1 2 3 3 2 3 1 2 2 2 3 5 5 4 4 4 6 6 7 8 10 12 14 14 13 12 12 12 14 15 14 13 13 11 12 15 16 16 17 18 18 17 16 16 17 19 22 23 20 17 17 17 16 14 14 16 15 13 14 15 14 13 12 12 10 9 8 7 6 4 3 2 1 1 2 3 4 4 4 3 3 2 1 1 1 2 2
Wind_Direction
188 184 177 169 163 162 159 165 173 81 220 249 239 256 189 209 308 276 319 322 225 33 29 86 109 139 146 144 142 103 52 133 149 139 113 111 155 163 168 166 166 167 166 165 167 168 170 173 175 177 176 176 175 173 170 162 156 149 144 138 136 138 141 146 147 148 148 147 145 143 137 131 128 128 131 133 135 138 142 140 140 139 130 123 121 126 135 142 148 150 151 152 148 146 146 136 127
178 174 168 162 161 164 168 181 236 133 203 246 225 201 82 198 192 309 335 341 146 94 82 85 90 92 85 97 101 93 61 42 61 85 94 144 153 156 163 164 168 170 169 168 168 170 171 173 174 176 176 177 177 175 171 164 157 149 144 138 136 136 139 142 144 146 145 144 142 137 133 128 125 124 126 125 124 125 128 130 130 124 116 113 110 112 125 133 144 149 153 158 154 153 151 140 134
169 164 159 157 156 156 160 171 271 172 193 226 231 155 134 195 159 38 356 13 154 106 83 86 73 56 48 88 62 31 62 57 98 110 117 146 147 150 160 164 170 172 172 171 170 172 172 172 173 176 177 178 178 177 173 167 159 150 145 140 138 137 140 142 141 143 142 141 139 136 132 128 127 127 129 127 122 117 115 116 119 124 122 121 124 130 127 119 133 143 150 156 158 161 155 145 142
158 153 151 151 146 136 145 176 223 175 199 216 267 152 198 189 160 10 8 141 177 87 53 97 74 43 34 80 42 20 76 79 111 124 130 145 148 152 158 164 171 173 174 172 171 172 172 173 173 176 177 179 180 178 176 170 163 154 149 145 141 139 140 142 142 143 144 145 141 137 132 128 129 133 134 132 127 119 113 105 105 126 138 136 136 139 128 112 123 137 146 152 155 162 159 149 148
148 146 148 148 150 150 137 128 120 205 211 182 44 162 199 178 169 276 335 284 230 245 57 121 113 77 70 69 32 66 95 106 123 134 142 151 153 154 158 165 171 173 174 173 173 172 172 174 174 176 177 180 180 178 175 170 164 157 153 149 146 143 141 144 146 149 150 147 141 135 134 133 137 139 136 134 130 123 116 105 97 114 138 146 147 144 132 123 129 140 145 148 152 159 161 155 152
143 141 142 147 153 150 146 185 190 223 218 157 152 155 190 218 283 274 283 293 263 234 184 142 132 121 100 61 62 114 106 137 144 150 148 151 154 156 160 165 171 173 174 174 174 173 174 176 175 176 177 180 181 178 173 168 163 158 153 150 149 147 145 148 153 156 153 147 141 138 140 140 139 138 135 131 129 127 121 110 103 108 124 138 145 146 142 141 146 151 147 149 157 161 163 163 159
144 137 140 147 115 126 201 220 215 232 198 165 213 311 260 258 260 271 284 288 267 215 201 181 145 127 110 79 108 117 34 155 162 164 151 151 157 158 162 166 170 172 174 173 171 172 174 175 173 172 176 178 178 176 172 167 163 159 154 152 153 150 150 154 158 160 157 152 147 144 144 143 138 133 129 127 128 129 124 112 109 112 117 123 126 133 142 149 154 154 152 154 161 168 171 172 167
147 137 146 156 96 21 217 234 239 231 182 200 252 274 274 278 245 260 277 239 242 191 182 171 161 139 115 127 128 113 77 159 174 166 153 154 160 161 163 167 170 172 172 169 166 168 171 169 168 171 174 173 171 169 167 165 162 160 159 158 157 153 153 158 163 163 163 160 154 149 148 146 140 133 129 129 132 130 124 115 112 115 115 116 119 125 133 141 149 153 159 163 168 176 177 177 175
150 135 145 155 148 201 224 249 257 221 259 274 262 258 270 278 252 250 251 232 232 193 159 161 168 156 144 142 126 121 130 160 177 164 157 158 161 164 165 167 172 173 167 163 166 168 167 164 167 170 171 170 169 167 167 166 164 165 165 164 161 157 156 160 164 166 170 168 160 155 152 150 148 148 145 141 138 133 127 121 117 119 116 113 116 123 130 132 141 152 163 172 178 181 178 177 178
150 136 143 128 163 211 234 236 255 227 251 270 274 273 284 283 252 237 242 243 212 180 154 157 157 138 141 138 125 129 143 157 173 166 164 162 163 166 165 169 176 175 164 162 167 165 165 164 166 168 167 169 170 171 171 169 168 170 170 169 165 162 160 160 165 169 174 172 165 160 157 157 160 162 159 150 142 137 130 122 119 121 118 115 116 116 123 128 136 147 159 173 186 185 178 178 175
147 141 144 146 190 213 229 235 241 267 273 289 279 285 308 295 252 229 231 235 195 162 152 152 131 134 132 127 132 131 144 150 171 170 167 168 167 167 167 169 174 175 166 162 164 162 161 160 160 162 165 169 173 175 175 174 174 175 176 174 171 166 161 162 167 170 172 173 170 165 164 167 164 162 159 153 144 139 132 126 123 121 122 120 117 109 108 113 123 140 154 169 187 189 183 184 178
156 133 149 181 208 214 233 259 261 287 283 298 315 342 339 305 248 230 219 208 173 153 156 167 150 140 122 127 144 141 151 152 175 175 170 171 171 169 170 169 169 171 164 160 161 157 155 153 153 160 167 170 173 177 179 181 181 183 183 179 174 166 161 163 166 169 172 175 176 173 172 170 163 159 160 156 147 142 136 132 128 126 130 125 115 106 100 99 105 128 155 173 186 194 192 195 193
182 140 166 181 217 193 156 241 284 297 282 194 338 348 351 325 311 247 194 161 151 154 161 169 156 139 107 131 148 163 170 166 176 179 174 174 174 170 171 172 169 166 161 158 157 154 154 153 154 160 167 171 174 180 184 186 187 188 185 178 172 163 158 161 166 171 173 176 178 176 174 165 159 158 158 156 149 144 138 134 130 126 126 118 111 106 99 92 92 110 143 178 192 200 202 204 207
194 166 182 173 97 154 162 227 269 240 122 106 354 350 3 19 27 105 125 122 130 148 150 155 151 128 113 139 162 177 178 176 177 179 176 177 175 170 170 172 168 162 158 157 156 156 156 154 156 160 166 172 175 181 186 186 185 185 180 173 167 158 156 161 167 170 171 174 174 171 169 161 155 154 152 152 148 142 138 134 128 122 116 112 115 112 106 100 97 107 129 171 201 210 214 214 216
187 160 150 150 138 178 201 232 256 191 122 94 12 358 9 42 66 110 97 104 94 121 138 147 150 104 156 165 183 180 180 180 179 177 176 175 170 166 164 164 162 159 154 154 155 153 156 161 162 164 167 169 170 173 176 176 176 175 171 167 162 156 157 162 165 169 169 169 167 165 164 160 155 154 151 149 146 143 140 135 126 120 117 118 122 122 120 120 120 128 142 167 199 214 221 223 224
170 150 119 173 172 191 195 193 214 177 128 162 11 5 14 49 65 96 82 132 115 127 138 150 154 56 161 168 166 174 179 180 178 178 177 170 160 160 161 158 156 156 152 152 152 152 161 167 165 164 165 164 165 166 164 168 172 168 163 161 160 157 161 164 166 169 165 161 163 161 161 160 158 157 154 150 148 147 143 135 127 123 124 126 129 135 135 136 142 153 165 178 195 210 219 226 227
155 154 190 185 197 193 189 190 189 158 33 282 9 7 14 31 50 85 103 126 117 130 136 148 155 48 156 167 165 172 176 180 179 179 176 166 160 162 165 162 159 157 152 153 155 161 165 164 164 163 164 162 162 164 162 166 168 161 157 158 158 158 163 165 164 165 162 160 161 159 159 160 162 162 159 157 154 152 148 137 129 130 134 134 136 141 144 151 163 173 185 192 199 209 215 221 224
157 168 209 200 191 176 184 193 187 151 6 345 353 5 20 7 30 112 109 112 106 111 100 118 121 60 159 171 174 173 174 179 179 179 176 172 171 169 167 166 163 160 156 159 164 166 163 162 165 165 164 162 162 165 163 162 160 156 154 155 158 159 162 163 161 163 162 162 163 162 162 160 161 165 163 162 162 161 157 147 142 144 145 145 145 145 150 160 169 179 192 202 209 214 218 219 219
167 136 213 208 185 180 205 202 199 212 328 330 334 360 8 342 302 171 139 129 125 108 82 89 101 100 139 156 169 172 175 179 180 181 179 179 179 173 166 162 160 160 158 162 163 160 159 159 165 170 166 162 166 167 162 159 157 155 154 155 158 160 161 163 163 165 164 166 169 170 167 163 164 167 170 171 174 176 173 165 158 155 157 161 158 154 157 161 167 180 192 203 214 220 222 224 221
176 172 220 207 201 241 244 231 234 240 296 318 323 340 343 354 274 217 235 160 176 180 146 137 145 144 145 156 167 171 176 181 182 183 184 184 182 176 169 163 160 162 161 161 160 154 155 158 165 172 168 164 170 169 161 159 158 156 157 159 161 161 161 163 164 166 167 169 172 172 169 170 173 175 176 177 182 185 182 177 170 165 168 172 165 155 161 164 167 183 194 203 212 220 221 223 225
161 190 221 138 177 236 253 257 258 259 283 293 312 325 335 18 54 211 185 166 219 242 202 189 181 168 159 163 170 174 178 182 184 185 188 187 183 180 175 169 167 164 155 148 148 149 155 165 168 170 171 168 171 170 164 162 161 160 161 163 162 161 161 162 163 165 167 165 164 167 171 176 183 183 179 177 179 182 183 183 182 177 171 174 171 162 169 172 172 183 194 203 211 221 219 218 222
158 194 203 144 162 226 264 273 276 275 275 272 301 317 318 1 358 206 181 188 225 227 222 220 202 176 167 170 174 177 179 182 185 188 190 187 184 183 178 172 168 164 151 140 147 157 164 170 169 171 175 171 170 171 167 165 165 163 161 161 160 158 158 160 161 161 159 157 159 163 172 182 192 192 188 185 175 171 179 185 189 190 185 184 182 175 177 178 178 186 199 208 213 219 216 216 218
206 198 195 195 191 225 269 275 280 275 261 262 273 291 296 302 332 252 200 233 271 262 258 226 201 177 169 173 176 177 180 184 188 190 190 189 188 188 184 175 167 167 164 162 171 174 171 172 172 174 173 170 171 172 169 166 164 161 159 158 158 159 159 161 161 161 162 164 170 175 184 195 206 210 210 203 185 176 184 188 195 200 199 195 189 182 183 190 192 199 211 217 217 216 212 212 214
222 203 219 232 215 233 264 271 277 276 259 258 266 277 282 265 297 265 218 249 269 279 286 206 182 167 167 174 177 179 180 184 187 188 189 190 192 193 189 179 172 176 173 172 180 177 173 174 175 174 172 171 170 170 170 165 161 160 161 162 162 164 164 167 170 173 180 184 191 195 201 210 217 225 228 218 208 214 214 200 200 207 210 204 193 186 191 205 209 210 221 226 222 216 210 211 213
215 219 222 235 231 247 269 275 277 279 271 265 257 255 265 256 243 248 249 259 266 276 236 178 168 163 169 176 178 178 178 179 180 182 187 192 196 197 191 182 180 187 181 178 183 179 176 176 175 174 174 176 172 171 173 165 165 169 171 173 172 173 174 180 184 190 198 203 210 212 216 222 225 232 237 231 225 230 234 217 207 209 213 211 198 192 196 208 210 213 229 235 221 216 214 212 214
201 211 213 218 249 267 277 278 276 279 277 259 213 229 265 242 209 238 258 258 253 211 160 161 162 164 171 177 179 177 173 172 171 174 185 193 199 199 193 189 188 191 189 187 186 181 180 180 180 180 177 179 178 177 177 172 178 184 186 187 182 182 186 195 204 214 223 228 229 227 230 232 230 234 236 238 237 233 238 232 214 205 208 212 202 196 195 197 203 205 219 236 219 216 219 214 214
195 203 224 239 259 278 275 269 267 273 273 243 215 231 65 166 184 229 243 225 184 157 151 158 163 166 171 174 177 177 170 167 169 174 185 192 201 204 198 194 193 193 192 188 184 183 185 186 184 183 179 181 182 184 185 184 192 196 197 200 194 196 202 212 220 228 235 239 243 241 241 241 236 236 237 238 237 229 233 233 214 201 204 211 206 201 198 199 204 204 211 232 226 215 221 222 220
225 200 238 252 269 273 258 259 265 261 266 242 214 181 89 155 189 226 210 188 168 160 155 160 165 166 170 171 173 175 169 167 175 181 185 187 193 203 201 196 196 195 191 186 184 186 190 190 186 184 183 184 185 189 193 195 203 204 206 209 203 203 213 224 228 235 240 235 241 245 244 240 234 236 239 235 226 221 226 224 213 209 210 208 205 202 201 203 206 209 214 228 237 225 225 229 228
193 168 260 267 306 270 230 245 261 207 252 216 172 176 160 181 191 171 182 170 162 163 158 161 165 167 172 172 170 171 171 173 181 186 189 190 190 196 199 198 198 196 192 189 188 190 193 191 186 186 187 187 189 194 199 204 210 210 211 212 204 205 216 229 237 246 246 230 222 233 237 237 234 237 238 229 224 223 219 214 215 218 213 205 203 202 203 206 207 214 219 222 231 229 227 231 231
165 134 285 279 307 254 195 190 170 177 255 165 161 229 226 200 184 156 170 168 162 162 164 166 169 171 172 171 170 171 176 182 188 192 195 199 198 197 197 200 200 196 195 194 194 195 195 190 187 189 189 190 193 197 201 204 206 209 211 209 204 210 220 234 245 244 234 222 223 233 240 243 236 235 234 223 224 223 208 209 217 218 209 202 203 204 207 210 211 216 222 221 224 226 229 234 236
119 150 153 312 239 208 170 144 159 174 262 168 179 251 231 209 181 167 174 174 169 166 169 173 173 175 172 171 171 173 180 189 194 198 199 202 204 198 197 201 198 196 197 196 197 197 194 192 192 193 191 191 193 194 196 198 200 204 207 206 207 216 224 232 237 231 219 219 240 242 241 246 233 229 232 220 215 213 205 207 217 218 213 210 208 210 214 214 213 214 217 217 220 225 231 240 243
44 194 181 198 217 231 285 181 190 200 60 170 194 250 235 236 164 170 178 180 177 171 170 174 175 173 172 173 174 177 181 188 196 201 201 204 203 194 197 199 195 195 198 197 195 191 192 195 196 195 192 189 188 185 187 190 195 200 204 206 210 217 222 226 227 222 218 224 242 241 231 240 236 229 231 221 211 210 209 212 218 222 223 222 217 218 224 225 219 214 214 212 214 223 230 241 245
37 243 197 181 197 243 312 136 212 256 76 177 210 236 227 280 152 172 177 184 183 173 169 172 175 172 174 175 178 182 184 188 198 201 198 201 197 192 196 199 194 196 199 193 188 188 190 192 190 187 185 182 181 177 180 185 192 198 202 205 206 207 211 217 219 215 216 221 231 239 240 249 251 242 236 230 222 214 214 218 223 227 230 234 233 231 234 237 229 219 220 219 219 223 227 236 244
170 240 196 195 212 229 243 129 74 243 178 209 216 220 222 38 141 171 175 185 185 175 172 173 176 176 178 178 181 186 189 194 198 193 193 197 193 192 197 199 194 196 199 187 185 192 189 185 181 177 174 176 177 174 179 187 192 196 197 196 193 191 195 203 209 210 210 219 226 237 247 250 248 240 233 232 230 225 224 227 231 236 241 247 253 252 248 246 238 228 228 229 229 232 231 236 244
166 188 183 196 222 223 254 263 95 148 226 218 196 212 226 65 144 171 173 184 186 180 176 174 178 182 184 184 185 188 192 200 195 187 191 193 192 193 196 198 194 196 198 187 190 193 183 183 180 172 170 173 175 176 183 189 191 193 189 184 176 167 170 180 188 194 197 206 217 223 222 204 205 209 212 219 227 232 233 235 241 247 253 256 260 263 263 262 256 245 238 232 230 235 239 244 248
144 160 197 211 228 238 259 265 247 227 240 213 196 212 214 167 161 172 175 183 188 187 180 177 181 185 188 188 189 189 194 202 195 189 194 193 195 197 196 198 197 197 195 190 194 189 180 186 179 171 173 174 177 181 185 189 189 188 183 172 156 147 150 159 166 172 173 167 170 258 275 219 177 143 157 190 208 225 233 241 252 259 264 266 268 270 270 271 268 261 254 244 232 227 235 245 246
130 141 198 222 245 261 266 252 351 278 231 211 202 223 211 168 167 171 180 186 190 192 186 186 189 190 191 191 193 191 194 203 200 193 198 197 197 199 199 199 198 197 195 194 198 187 182 187 179 173 175 174 180 184 183 187 189 185 171 154 141 137 143 152 155 152 141 114 76 44 16 260 203 157 141 141 157 163 187 251 279 281 282 285 288 287 284 282 278 271 266 257 244 225 225 238 238
129 172 232 233 221 256 286 129 357 289 225 214 153 200 188 142 167 164 178 186 195 201 198 197 198 197 197 195 198 196 195 204 206 200 200 201 201 201 202 202 200 198 196 198 199 191 185 188 183 177 174 176 181 180 180 183 186 175 123 122 127 135 142 144 141 137 128 97 70 66 67 67 63 118 138 147 148 163 205 289 301 304 300 295 297 299 302 307 307 297 280 258 252 233 221 234 234
130 164 238 212 208 262 290 235 348 9 212 173 120 161 97 44 161 117 126 169 188 201 206 209 207 206 205 201 200 201 200 204 209 206 202 204 204 203 204 204 202 199 200 201 200 197 195 193 189 180 176 179 176 169 171 178 186 178 128 110 121 133 140 139 136 135 126 91 77 74 78 88 96 99 99 104 118 202 255 297 303 311 305 296 306 315 318 324 336 337 334 268 255 231 212 229 230
183 174 209 203 184 255 160 127 349 1 15 88 120 130 76 55 114 126 32 70 118 174 200 213 218 217 213 209 205 204 207 207 210 209 206 206 206 207 207 205 203 202 205 206 200 199 201 199 194 184 181 181 172 161 165 181 194 187 163 132 130 137 136 133 131 127 112 90 85 80 82 96 104 105 96 83 76 65 59 56 54 54 34 33 34 28 30 29 35 34 36 58 206 187 191 217 226
218 207 217 227 216 242 248 33 316 286 60 64 116 136 103 90 144 162 167 116 119 153 191 206 220 226 221 218 215 212 214 214 213 213 209 208 209 209 207 206 206 206 210 209 202 200 202 204 199 189 184 180 169 162 173 193 203 199 195 161 152 154 136 125 121 114 100 89 91 88 86 97 101 99 94 84 72 63 60 55 53 56 49 53 57 57 67 65 60 58 54 58 71 120 178 208 221
228 213 216 220 208 236 265 2 295 196 102 52 355 170 130 85 127 155 161 187 177 166 193 207 214 222 222 220 220 217 220 220 216 215 213 210 211 211 209 208 206 207 212 210 205 204 205 211 212 196 185 181 175 180 196 203 205 216 252 358 112 130 125 120 115 107 93 82 85 86 89 100 101 99 95 85 73 65 58 49 48 57 63 73 84 80 80 68 57 48 46 50 58 77 148 201 223
222 208 203 202 184 184 219 210 201 181 125 68 333 217 150 97 92 136 183 196 190 178 201 213 212 215 218 220 223 219 219 221 217 217 214 212 215 214 208 202 196 199 209 210 208 206 206 214 216 201 192 193 191 199 210 207 204 222 253 133 94 94 103 108 106 99 88 83 83 85 95 104 104 99 91 84 80 73 62 54 56 63 73 89 117 155 126 2 342 354 15 31 49 64 98 151 203
196 161 165 168 169 179 183 156 147 155 94 151 2 335 163 128 119 222 206 184 192 205 209 213 214 215 214 217 220 219 219 218 215 219 216 215 219 217 203 194 192 201 209 211 213 211 207 211 209 197 200 203 200 202 209 210 208 225 223 179 131 107 107 104 101 96 86 84 87 90 93 96 94 84 77 82 88 83 75 69 67 68 72 78 82 98 289 307 307 322 355 15 43 63 84 98 109
284 116 123 138 149 156 156 130 115 62 233 178 19 351 183 151 116 173 182 178 192 213 218 220 223 224 223 222 222 223 225 220 218 222 219 220 224 205 167 158 177 206 213 212 216 215 209 205 200 204 206 204 206 209 209 214 219 221 205 186 157 123 117 111 103 94 86 86 91 94 87 83 77 73 80 91 94 92 87 80 72 70 71 74 74 71 64 21 359 45 77 88 90 91 95 94 89
136 128 99 93 88 78 82 108 116 116 214 184 14 348 211 187 51 108 174 170 174 214 237 241 250 249 243 238 236 233 232 231 228 223 215 221 213 168 151 144 175 214 223 222 220 210 199 192 192 208 207 197 201 210 211 219 222 214 195 188 170 126 117 114 104 91 86 88 91 86 80 77 73 79 92 98 97 94 90 83 75 71 70 72 74 73 74 76 81 87 87 97 110 106 98 100 80
144 137 101 98 74 50 63 41 75 179 202 166 5 341 293 199 225 292 214 119 8 311 286 278 299 291 268 253 246 241 240 239 231 214 205 207 197 192 208 216 214 217 222 227 224 208 198 193 190 203 203 194 196 204 212 222 223 209 191 189 172 131 113 104 97 87 85 88 89 87 84 85 83 86 97 100 96 92 88 85 78 73 71 69 70 72 76 79 82 85 81 83 92 86 52 18 4
146 133 127 136 83 38 110 39 346 205 192 94 15 327 279 211 200 245 283 353 339 305 297 302 306 297 289 282 259 240 239 238 223 201 194 194 204 223 226 224 222 217 216 220 218 212 210 203 202 208 201 197 199 203 213 223 219 205 193 190 177 145 122 107 100 85 85 89 88 90 92 93 91 93 99 99 96 92 88 87 83 78 76 72 67 67 70 75 78 78 78 77 76 79 86 80 78
162 133 148 164 147 169 202 207 214 223 217 51 10 303 239 236 266 301 314 336 337 317 304 299 296 291 296 307 279 232 226 219 199 181 174 178 211 233 233 231 225 219 216 217 212 207 206 211 218 211 197 196 203 206 215 223 214 203 197 194 179 154 133 122 117 96 91 96 94 95 96 95 96 98 100 99 95 88 84 85 83 79 76 72 68 65 65 69 72 72 71 71 71 76 85 87 87
182 162 163 173 151 159 193 181 231 249 245 28 350 286 196 207 300 299 313 332 337 330 321 304 297 305 339 45 100 138 159 158 148 144 151 168 203 225 226 231 227 219 213 210 206 200 202 214 216 204 192 194 204 206 212 219 213 202 198 194 179 157 144 139 137 124 110 109 109 109 106 105 107 106 104 101 95 87 82 79 76 72 71 68 66 64 65 67 69 68 67 65 65 68 71 74 78
176 168 160 176 165 177 203 196 203 209 162 87 149 208 191 159 50 327 322 335 353 354 351 16 59 81 90 96 101 105 107 112 117 117 119 125 121 147 222 233 229 209 188 174 175 202 217 215 208 203 196 191 196 201 206 214 212 203 198 194 182 166 154 150 154 151 137 127 126 123 120 122 121 116 112 105 98 90 82 76 71 67 65 62 60 59 59 63 66 66 64 63 63 64 63 63 67
122 13 148 182 179 152 141 137 171 190 149 138 177 221 269 210 269 304 310 347 43 32 56 91 96 105 106 103 103 102 101 100 99 96 94 89 74 59 22 277 232 181 154 124 123 174 201 207 206 210 206 195 196 202 206 210 210 203 200 197 187 177 166 160 164 166 156 145 141 137 137 139 130 122 116 107 100 92 82 75 72 69 65 61 57 54 52 54 58 61 61 60 60 62 62 63 68
131 181 176 168 97 110 117 114 51 18 204 176 169 227 220 216 198 184 172 145 109 79 90 98 106 115 112 110 112 110 107 106 103 96 93 91 82 74 67 46 226 178 102 94 125 152 174 193 205 212 214 209 207 208 210 212 210 204 202 202 193 184 175 166 169 174 170 161 156 154 156 154 140 128 121 112 104 94 85 76 70 68 67 63 57 53 50 49 52 54 56 56 54 57 58 61 69
141 186 161 135 84 82 112 151 89 140 207 172 135 237 184 197 180 154 167 160 129 108 93 95 108 115 113 114 120 122 122 127 128 114 104 104 102 96 87 88 221 196 83 99 143 164 177 189 204 212 215 217 216 215 214 215 214 208 205 205 197 187 177 169 173 179 181 178 169 164 168 167 152 140 132 122 113 100 88 77 70 63 59 59 56 53 49 46 47 48 49 50 49 51 50 49 53
43 146 132 134 191 162 149 160 151 184 199 165 157 255 231 214 206 166 187 179 146 140 127 122 122 113 111 113 126 133 132 137 140 121 110 116 115 110 99 88 150 149 84 106 153 180 197 197 202 208 209 216 219 219 219 217 216 214 212 210 201 189 179 175 178 182 185 187 178 169 175 180 170 159 150 139 132 123 108 93 80 68 59 57 56 56 53 50 48 44 41 41 41 43 44 41 38
56 118 119 27 276 173 173 150 171 190 189 167 158 195 233 215 214 192 186 181 168 166 161 155 151 123 125 131 150 156 146 148 151 128 123 145 134 121 122 115 116 108 73 90 154 174 195 200 201 207 211 217 220 221 220 218 218 217 217 214 205 195 189 184 182 182 186 191 187 180 184 190 186 177 168 156 148 143 133 121 107 90 74 63 55 51 47 45 49 47 43 40 36 34 34 36 37
120 154 158 147 88 96 170 108 31 196 178 171 167 194 220 163 104 233 179 189 186 174 165 168 167 148 149 152 161 175 165 157 156 144 147 162 146 131 144 152 164 161 147 158 162 164 179 192 199 206 213 219 223 224 221 219 219 219 219 217 211 205 201 194 186 182 184 191 192 190 192 193 192 187 181 176 168 159 151 145 139 117 65 45 44 43 36 27 21 25 35 44 46 40 31 28 31
171 176 174 158 130 144 169 163 160 17 167 181 174 192 172 81 27 306 315 286 209 174 169 160 145 134 135 140 142 147 149 144 142 142 144 141 131 134 147 156 164 163 158 163 161 162 175 186 193 199 207 217 226 228 224 219 219 219 219 219 217 213 210 207 197 187 184 188 191 192 194 195 194 189 188 191 189 182 178 185 202 230 266 322 3 11 13 10 2 356 358 3 15 59 70 51 37